This is the latest recevied weather packets stored in our database for station/object GW6922. If no packets are shown the sender has not sent any weather packets the latest 10 day(s).
| Time | Temp. | Humidity | Pressure | Rain* | Wind** | Luminosity | Snow |
|---|---|---|---|---|---|---|---|
| 1777287644 | 17.22° C | 69% | 1001.8 hPa | 0 mm | - | - | - |
| 1777275986 | 16.11° C | 68% | 1003.6 hPa | 0 mm | - | - | - |
| 1777272884 | 16.11° C | 68% | 1005.1 hPa | 0.25 mm | - | - | - |
| 1777271009 | 16.67° C | 64% | 1005.2 hPa | 0 mm | - | - | - |
| 1777270405 | 16.67° C | 65% | 1005.5 hPa | 0 mm | - | - | - |
| 1777267346 | 17.22° C | 59% | 1006.2 hPa | 0 mm | - | - | - |
| 1777264274 | 17.78° C | 57% | 1006.4 hPa | 0 mm | - | - | - |
| 1777262399 | 17.78° C | 59% | 1006.4 hPa | 0 mm | - | - | - |
| 1777261154 | 17.78° C | 59% | 1006.4 hPa | 0 mm | - | - | - |
| 1777260510 | 17.78° C | 59% | 1006.4 hPa | 0 mm | - | - | - |
| 1777257469 | 18.89° C | 57% | 1006.5 hPa | 0 mm | - | - | - |
| 1777256849 | 18.89° C | 57% | 1006.5 hPa | 0 mm | - | - | - |
| 1777255019 | 20° C | 52% | 1006.6 hPa | 0 mm | - | - | - |
| 1777251326 | 21.11° C | 47% | 1005.7 hPa | 0 mm | - | - | - |
| 1777250726 | 21.11° C | 46% | 1005.9 hPa | 0 mm | - | - | - |
| 1777249499 | 21.11° C | 46% | 1005.9 hPa | 0 mm | - | - | - |
| 1777247049 | 22.22° C | 45% | 1006 hPa | 0 mm | - | - | - |
| 1777246439 | 22.22° C | 45% | 1006 hPa | 0 mm | - | - | - |
| 1777245810 | 22.22° C | 45% | 1006.2 hPa | 0 mm | - | - | - |
| 1777243964 | 22.78° C | 44% | 1006.1 hPa | 0 mm | - | - | - |
| 1777239029 | 24.44° C | 40% | 1007.1 hPa | 0 mm | - | - | - |
| 1777237769 | 24.44° C | 41% | 1007.2 hPa | 0 mm | - | - | - |
| 1777232239 | 23.33° C | 47% | 1007.8 hPa | 0 mm | - | - | - |
| 1777227319 | 22.22° C | 50% | 1009.3 hPa | 0 mm | - | - | - |
| 1777226069 | 21.67° C | 51% | 1009.5 hPa | 0 mm | - | - | - |
* Rain latest hour (hover to see other rain measurements)
** Current wind speed in m/s (hover to see current wind gust speed)